Regional Weather Roundup
Issued by NWS

Home | Current Version | Previous Version | Graphics & Text | Print | Product List | Glossary On
Versions: 1 2 3 4 5 6 7 8 9 10 11 12 13 14 15 16 17 18 19 20 21 22 23 24 25 26 27
000
ASUS45 KSLC 062210
RWRUT

UTAH REGIONAL WEATHER ROUNDUP
NATIONAL WEATHER SERVICE SALT LAKE CITY UT
300 PM MST TUE DEC 06 2016

UTZ001>011-023>025-062300-

NORTHERN UTAH

CITY           SKY/WX    TMP DP  RH WIND       PRES   REMARKS
BRIGHAM CITY     N/A     31   9  40 CALM      29.79S
HILL AFB       NOT AVBL
LOGAN          PTSUNNY   24  14  65 CALM      29.79S
OGDEN          PTSUNNY   28  10  46 CALM      29.77R
SALT LAKE CITY FLURRIES  27  20  75 NE7       29.80R WCI  19
TOOELE VALLEY  CLOUDY    30  21  69 S5        29.80R WCI  25
WENDOVER       PTSUNNY   28   9  43 CALM      29.81R
HEBER CITY     CLOUDY    28   9  43 CALM      29.67R
WEST JORDAN    CLOUDY    28  20  70 N7        29.79R WCI  21

$$

UTZ011>015-024>027-062300-

CENTRAL/NORTHEAST UTAH

CITY           SKY/WX    TMP DP  RH WIND       PRES   REMARKS
PROVO AIRPORT  PTSUNNY   34  13  41 NW15      29.75R WCI  24
MOAB/CANYONLAN SUNNY     38   5  25 CALM      29.69F
DELTA          SUNNY     36   7  30 N10       29.71S WCI  28
PRICE          SUNNY     32   5  32 CALM      29.66F
RICHFIELD      SUNNY     46  10  23 SW17G33   29.65F
ROOSEVELT      MOSUNNY   32  -4  21 NE3       29.72F
VERNAL         PTSUNNY   29  -5  22 E5        29.70F WCI  24

$$

UTZ013>016-019>022-027-062300-

SOUTHERN UTAH

CITY           SKY/WX    TMP DP  RH WIND       PRES   REMARKS
BRYCE CANYON   SUNNY     36  11  35 SW17      29.71S WCI  26
CEDAR CITY     SUNNY     46  14  27 SW17G28   29.71S
MILFORD        SUNNY     50   6  16 SW28      29.64F
ST GEORGE      MOCLDY    54  19  26 SW6       29.77F
HANKSVILLE     SUNNY     37   7  28 SE5       29.72F WCI  34
KANAB          SUNNY     54  16  22 SW16      29.78F
BLANDING       SUNNY     44  15  30 SW9       29.78F

$$

REGIONAL REPORTS     COLORADO/ARIZONA

CITY           SKY/WX    TMP DP  RH WIND       PRES   REMARKS
CRAIG, CO      CLOUDY    26   7  44 E9        29.69F WCI  17
GRAND JUNCTION CLOUDY    32   8  36 W3        29.71F
RIFLE, CO      CLOUDY    30   9  41 CALM      29.69F
MONTROSE, CO   CLOUDY    40  14  34 S5        29.69F
CORTEZ, CO     PTSUNNY   45  19  35 SW13      29.74F
COLORADO CITY    N/A     52  19  28 W14G21    29.79F
PAGE, AZ       PTSUNNY   54  11  18 W5        29.71F
GRAND CANYON   SUNNY     45  21  38 SW22G30   29.82S
KINGMAN, AZ    SUNNY     56  14  19 SW21G28   29.82F
FLAGSTAFF, AZ  MOSUNNY   41  22  46 SW24G30   29.84S

$$

REGIONAL REPORTS    NEVADA/IDAHO/WYOMING

CITY           SKY/WX    TMP DP  RH WIND       PRES   REMARKS
LAS VEGAS, NV  PTSUNNY   60  18  19 NE6       29.76F
ELY, NY        SUNNY     37   8  30 NW18G28   29.72R WCI  27
ELKO, NV       PTSUNNY   32  15  49 W18       29.81R WCI  20
POCATELLO, ID  LGT SNOW  20  15  81 E7        29.80F WCI  11
BURLEY, ID     CLOUDY    22  19  89 CALM      29.82R
FORT BRIDGER,  LGT SNOW   6   2  82 NW5       29.73R WCI  -3
EVANSTON, WY   LGT SNOW  11   5  77 E7        29.68R WCI   0
ROCK SPRINGS,  CLOUDY    17  -6  35 E5        29.69F WCI  10

$$




USA.gov is the U.S. government's official web portal to all federal, state and local government web resources and services.